Time,TemperatureF,DewpointF,PressureIn,WindDirection,WindDirectionDegrees,WindSpeedMPH,WindSpeedGustMPH,Humidity,HourlyPrecipIn,Conditions,Clouds,dailyrainin,SoftwareType,DateUTC
2013-04-29 00:01:00,66.0,17.0,-100.00,West,268,6.0,7.0,15,-99.99,,,-99.99,,2013-04-29 07:01:00,
2013-04-29 00:11:00,66.0,20.0,-100.00,West,277,6.0,7.0,17,-99.99,,,-99.99,,2013-04-29 07:11:00,
2013-04-29 00:21:00,65.0,22.0,-100.00,West,271,5.0,6.0,19,-99.99,,,-99.99,,2013-04-29 07:21:00,
2013-04-29 00:31:00,64.0,22.0,-100.00,West,276,6.0,7.0,20,-99.99,,,-99.99,,2013-04-29 07:31:00,
2013-04-29 00:41:00,64.0,21.0,-100.00,West,281,6.0,7.0,19,-99.99,,,-99.99,,2013-04-29 07:41:00,
2013-04-29 00:52:00,64.0,18.0,-100.00,West,272,6.0,7.0,17,-99.99,,,-99.99,,2013-04-29 07:52:00,
2013-04-29 01:02:00,64.0,15.0,-100.00,West,267,6.0,7.0,15,-99.99,,,-99.99,,2013-04-29 08:02:00,
2013-04-29 01:11:00,65.0,16.0,-100.00,West,270,6.0,7.0,15,-99.99,,,-99.99,,2013-04-29 08:11:00,
2013-04-29 01:21:00,64.0,14.0,-100.00,West,267,6.0,7.0,14,-99.99,,,-99.99,,2013-04-29 08:21:00,
2013-04-29 01:31:00,65.0,15.0,-100.00,West,265,6.0,7.0,14,-99.99,,,-99.99,,2013-04-29 08:31:00,
2013-04-29 01:41:00,64.0,17.0,-100.00,WSW,254,5.0,7.0,16,-99.99,,,-99.99,,2013-04-29 08:41:00,
2013-04-29 01:51:00,64.0,20.0,-100.00,WSW,247,5.0,6.0,18,-99.99,,,-99.99,,2013-04-29 08:51:00,
2013-04-29 02:01:00,64.0,20.0,-100.00,WSW,249,6.0,6.0,18,-99.99,,,-99.99,,2013-04-29 09:01:00,
2013-04-29 02:11:00,64.0,18.0,-100.00,WSW,245,5.0,7.0,17,-99.99,,,-99.99,,2013-04-29 09:11:00,
2013-04-29 02:21:00,64.0,18.0,-100.00,WSW,240,4.0,6.0,17,-99.99,,,-99.99,,2013-04-29 09:21:00,
2013-04-29 02:32:00,64.0,20.0,-100.00,WSW,242,5.0,6.0,18,-99.99,,,-99.99,,2013-04-29 09:32:00,
2013-04-29 02:42:00,64.0,20.0,-100.00,WSW,240,5.0,6.0,18,-99.99,,,-99.99,,2013-04-29 09:42:00,
2013-04-29 02:52:00,63.0,22.0,-100.00,SW,222,5.0,6.0,21,-99.99,,,-99.99,,2013-04-29 09:52:00,
2013-04-29 03:02:00,63.0,21.0,-100.00,WSW,237,5.0,7.0,20,-99.99,,,-99.99,,2013-04-29 10:02:00,
2013-04-29 03:12:00,63.0,22.0,-100.00,SW,234,5.0,6.0,21,-99.99,,,-99.99,,2013-04-29 10:12:00,
2013-04-29 03:22:00,63.0,25.0,-100.00,WSW,245,7.0,8.0,23,-99.99,,,-99.99,,2013-04-29 10:22:00,
2013-04-29 03:32:00,63.0,25.0,-100.00,WSW,257,7.0,8.0,23,-99.99,,,-99.99,,2013-04-29 10:32:00,
2013-04-29 03:42:00,63.0,24.0,-100.00,West,266,7.0,7.0,22,-99.99,,,-99.99,,2013-04-29 10:42:00,
2013-04-29 03:52:00,63.0,20.0,-100.00,West,277,7.0,8.0,19,-99.99,,,-99.99,,2013-04-29 10:52:00,
2013-04-29 04:02:00,63.0,18.0,-100.00,West,279,8.0,9.0,17,-99.99,,,-99.99,,2013-04-29 11:02:00,
2013-04-29 04:12:00,63.0,18.0,-100.00,West,274,7.0,8.0,17,-99.99,,,-99.99,,2013-04-29 11:12:00,
2013-04-29 04:21:00,63.0,15.0,-100.00,West,278,7.0,8.0,15,-99.99,,,-99.99,,2013-04-29 11:21:00,
2013-04-29 04:31:00,63.0,16.0,-100.00,West,276,7.0,8.0,16,-99.99,,,-99.99,,2013-04-29 11:31:00,
2013-04-29 04:41:00,64.0,17.0,-100.00,West,261,7.0,8.0,16,-99.99,,,-99.99,,2013-04-29 11:41:00,
2013-04-29 04:52:00,64.0,18.0,-100.00,West,260,7.0,8.0,17,-99.99,,,-99.99,,2013-04-29 11:52:00,
2013-04-29 05:01:00,64.0,18.0,-100.00,WSW,257,6.0,7.0,17,-99.99,,,-99.99,,2013-04-29 12:01:00,
2013-04-29 05:11:00,62.0,23.0,-100.00,SSW,197,5.0,6.0,22,-99.99,,,-99.99,,2013-04-29 12:11:00,
2013-04-29 05:21:00,62.0,26.0,-100.00,SSW,205,4.0,6.0,25,-99.99,,,-99.99,,2013-04-29 12:21:00,
2013-04-29 05:31:00,62.0,28.0,-100.00,SSW,205,5.0,6.0,27,-99.99,,,-99.99,,2013-04-29 12:31:00,
2013-04-29 05:51:00,62.0,26.0,-100.00,SW,221,4.0,6.0,25,-99.99,,,-99.99,,2013-04-29 12:51:00,
2013-04-29 06:01:00,62.0,27.0,-100.00,South,182,3.0,4.0,26,-99.99,,,-99.99,,2013-04-29 13:01:00,
2013-04-29 06:11:00,61.0,29.0,-100.00,SSE,166,1.0,2.0,30,-99.99,,,-99.99,,2013-04-29 13:11:00,
2013-04-29 06:21:00,61.0,27.0,-100.00,SSW,201,2.0,4.0,27,-99.99,,,-99.99,,2013-04-29 13:21:00,
2013-04-29 06:31:00,62.0,28.0,-100.00,SSW,194,4.0,4.0,27,-99.99,,,-99.99,,2013-04-29 13:31:00,
2013-04-29 06:42:00,62.0,28.0,-100.00,SW,226,5.0,5.0,27,-99.99,,,-99.99,,2013-04-29 13:42:00,
2013-04-29 06:52:00,62.0,28.0,-100.00,SW,216,5.0,6.0,27,-99.99,,,-99.99,,2013-04-29 13:52:00,
2013-04-29 07:11:00,62.0,26.0,-100.00,SW,227,6.0,6.0,25,-99.99,,,-99.99,,2013-04-29 14:11:00,
2013-04-29 07:21:00,63.0,26.0,-100.00,SW,235,5.0,6.0,24,-99.99,,,-99.99,,2013-04-29 14:21:00,
2013-04-29 07:32:00,63.0,26.0,-100.00,SW,232,5.0,6.0,24,-99.99,,,-99.99,,2013-04-29 14:32:00,
2013-04-29 07:42:00,63.0,28.0,-100.00,SW,227,5.0,6.0,26,-99.99,,,-99.99,,2013-04-29 14:42:00,
2013-04-29 07:51:00,63.0,28.0,-100.00,SW,222,4.0,6.0,26,-99.99,,,-99.99,,2013-04-29 14:51:00,
2013-04-29 08:12:00,65.0,29.0,-100.00,SSW,211,4.0,5.0,26,-99.99,,,-99.99,,2013-04-29 15:12:00,
2013-04-29 08:21:00,66.0,29.0,-100.00,SSW,212,3.0,5.0,25,-99.99,,,-99.99,,2013-04-29 15:21:00,
2013-04-29 08:33:00,66.0,28.0,-100.00,SW,221,3.0,5.0,24,-99.99,,,-99.99,,2013-04-29 15:33:00,
2013-04-29 08:42:00,67.0,28.0,-100.00,SW,214,3.0,5.0,23,-99.99,,,-99.99,,2013-04-29 15:42:00,
2013-04-29 08:52:00,68.0,28.0,-100.00,SW,214,3.0,4.0,22,-99.99,,,-99.99,,2013-04-29 15:52:00,
2013-04-29 09:02:00,68.0,27.0,-100.00,SW,230,3.0,5.0,21,-99.99,,,-99.99,,2013-04-29 16:02:00,
2013-04-29 09:12:00,69.0,26.0,-100.00,SW,233,4.0,6.0,20,-99.99,,,-99.99,,2013-04-29 16:12:00,
2013-04-29 09:23:00,70.0,27.0,-100.00,SW,222,4.0,7.0,20,-99.99,,,-99.99,,2013-04-29 16:23:00,
2013-04-29 09:32:00,70.0,27.0,-100.00,SW,220,4.0,8.0,20,-99.99,,,-99.99,,2013-04-29 16:32:00,
2013-04-29 09:42:00,70.0,28.0,-100.00,SW,223,5.0,8.0,21,-99.99,,,-99.99,,2013-04-29 16:42:00,
2013-04-29 09:52:00,71.0,30.0,-100.00,SW,217,5.0,8.0,22,-99.99,,,-99.99,,2013-04-29 16:52:00,
2013-04-29 10:02:00,71.0,30.0,-100.00,SW,217,5.0,8.0,22,-99.99,,,-99.99,,2013-04-29 17:02:00,
2013-04-29 10:11:00,71.0,29.0,-100.00,SSW,200,6.0,10.0,21,-99.99,,,-99.99,,2013-04-29 17:11:00,
2013-04-29 10:22:00,71.0,29.0,-100.00,SSW,197,5.0,9.0,21,-99.99,,,-99.99,,2013-04-29 17:22:00,
2013-04-29 10:32:00,73.0,30.0,-100.00,SW,214,5.0,11.0,20,-99.99,,,-99.99,,2013-04-29 17:32:00,
2013-04-29 10:42:00,73.0,30.0,-100.00,SW,223,6.0,12.0,20,-99.99,,,-99.99,,2013-04-29 17:42:00,
2013-04-29 10:52:00,73.0,31.0,-100.00,SSW,206,6.0,10.0,21,-99.99,,,-99.99,,2013-04-29 17:52:00,
2013-04-29 11:01:00,73.0,31.0,-100.00,SSW,206,6.0,10.0,21,-99.99,,,-99.99,,2013-04-29 18:01:00,
2013-04-29 11:12:00,74.0,29.0,-100.00,SSW,202,7.0,12.0,19,-99.99,,,-99.99,,2013-04-29 18:12:00,
2013-04-29 11:22:00,75.0,30.0,-100.00,SSW,202,7.0,14.0,19,-99.99,,,-99.99,,2013-04-29 18:22:00,
2013-04-29 11:31:00,75.0,29.0,-100.00,SSW,213,9.0,13.0,18,-99.99,,,-99.99,,2013-04-29 18:31:00,
2013-04-29 11:41:00,76.0,28.0,-100.00,SSW,201,9.0,14.0,17,-99.99,,,-99.99,,2013-04-29 18:41:00,
2013-04-29 11:51:00,76.0,25.0,-100.00,SSW,193,10.0,17.0,15,-99.99,,,-99.99,,2013-04-29 18:51:00,
2013-04-29 12:01:00,76.0,25.0,-100.00,SSW,193,10.0,17.0,15,-99.99,,,-99.99,,2013-04-29 19:01:00,
2013-04-29 12:11:00,78.0,27.0,-100.00,SSW,210,8.0,14.0,15,-99.99,,,-99.99,,2013-04-29 19:11:00,
2013-04-29 12:21:00,78.0,27.0,-100.00,WSW,241,6.0,14.0,15,-99.99,,,-99.99,,2013-04-29 19:21:00,
2013-04-29 12:31:00,78.0,27.0,-100.00,WSW,241,6.0,14.0,15,-99.99,,,-99.99,,2013-04-29 19:31:00,
2013-04-29 12:41:00,78.0,27.0,-100.00,WSW,241,6.0,14.0,15,-99.99,,,-99.99,,2013-04-29 19:41:00,
2013-04-29 12:52:00,78.0,25.0,-100.00,SW,223,10.0,17.0,14,-99.99,,,-99.99,,2013-04-29 19:52:00,
2013-04-29 13:02:00,77.0,26.0,-100.00,SW,222,11.0,17.0,15,-99.99,,,-99.99,,2013-04-29 20:02:00,
2013-04-29 13:11:00,78.0,27.0,-100.00,SW,215,11.0,16.0,15,-99.99,,,-99.99,,2013-04-29 20:11:00,
2013-04-29 13:21:00,78.0,25.0,-100.00,SW,220,12.0,18.0,14,-99.99,,,-99.99,,2013-04-29 20:21:00,
2013-04-29 13:32:00,78.0,27.0,-100.00,SW,231,12.0,19.0,15,-99.99,,,-99.99,,2013-04-29 20:32:00,
2013-04-29 13:42:00,78.0,27.0,-100.00,SW,230,11.0,16.0,15,-99.99,,,-99.99,,2013-04-29 20:42:00,
2013-04-29 13:51:00,80.0,30.0,-100.00,West,263,10.0,15.0,16,-99.99,,,-99.99,,2013-04-29 20:51:00,
2013-04-29 14:01:00,79.0,29.0,-100.00,West,260,11.0,16.0,16,-99.99,,,-99.99,,2013-04-29 21:01:00,
2013-04-29 14:11:00,79.0,30.0,-100.00,West,262,10.0,16.0,17,-99.99,,,-99.99,,2013-04-29 21:11:00,
2013-04-29 14:21:00,79.0,32.0,-100.00,WSW,250,11.0,16.0,18,-99.99,,,-99.99,,2013-04-29 21:21:00,
2013-04-29 14:32:00,79.0,32.0,-100.00,West,259,12.0,18.0,18,-99.99,,,-99.99,,2013-04-29 21:32:00,
2013-04-29 14:42:00,79.0,32.0,-100.00,West,259,12.0,18.0,18,-99.99,,,-99.99,,2013-04-29 21:42:00,
2013-04-29 14:53:00,78.0,32.0,-100.00,WSW,255,12.0,19.0,19,-99.99,,,-99.99,,2013-04-29 21:53:00,
2013-04-29 15:02:00,79.0,33.0,-100.00,WSW,253,12.0,19.0,19,-99.99,,,-99.99,,2013-04-29 22:02:00,
2013-04-29 15:13:00,78.0,32.0,-100.00,WSW,250,13.0,19.0,19,-99.99,,,-99.99,,2013-04-29 22:13:00,
2013-04-29 15:23:00,78.0,32.0,-100.00,WSW,245,13.0,21.0,19,-99.99,,,-99.99,,2013-04-29 22:23:00,
2013-04-29 15:32:00,78.0,34.0,-100.00,West,263,12.0,18.0,20,-99.99,,,-99.99,,2013-04-29 22:32:00,
2013-04-29 15:42:00,78.0,35.0,-100.00,WSW,258,13.0,21.0,21,-99.99,,,-99.99,,2013-04-29 22:42:00,
2013-04-29 15:52:00,78.0,35.0,-100.00,WSW,251,13.0,22.0,21,-99.99,,,-99.99,,2013-04-29 22:52:00,
2013-04-29 16:02:00,78.0,35.0,-100.00,WSW,247,13.0,21.0,21,-99.99,,,-99.99,,2013-04-29 23:02:00,
2013-04-29 16:11:00,77.0,34.0,-100.00,WSW,244,14.0,21.0,21,-99.99,,,-99.99,,2013-04-29 23:11:00,
2013-04-29 16:22:00,77.0,34.0,-100.00,WSW,248,16.0,22.0,21,-99.99,,,-99.99,,2013-04-29 23:22:00,
2013-04-29 16:31:00,77.0,34.0,-100.00,WSW,242,14.0,21.0,21,-99.99,,,-99.99,,2013-04-29 23:31:00,
2013-04-29 16:42:00,77.0,33.0,-100.00,WSW,248,14.0,20.0,20,-99.99,,,-99.99,,2013-04-29 23:42:00,
2013-04-29 16:52:00,77.0,33.0,-100.00,WSW,250,13.0,19.0,20,-99.99,,,-99.99,,2013-04-29 23:52:00,
2013-04-29 17:01:00,77.0,33.0,-100.00,WSW,244,14.0,20.0,20,-99.99,,,-99.99,,2013-04-30 00:01:00,
2013-04-29 17:11:00,76.0,33.0,-100.00,WSW,250,12.0,19.0,21,-99.99,,,-99.99,,2013-04-30 00:11:00,
2013-04-29 17:21:00,76.0,33.0,-100.00,WSW,245,12.0,19.0,21,-99.99,,,-99.99,,2013-04-30 00:21:00,
2013-04-29 17:31:00,76.0,33.0,-100.00,WSW,247,12.0,17.0,21,-99.99,,,-99.99,,2013-04-30 00:31:00,
2013-04-29 17:40:00,75.0,32.0,-100.00,WSW,251,11.0,16.0,21,-99.99,,,-99.99,,2013-04-30 00:40:00,
2013-04-29 17:41:00,76.0,33.0,-100.00,WSW,247,12.0,17.0,21,-99.99,,,-99.99,,2013-04-30 00:41:00,
2013-04-29 17:51:00,76.0,33.0,-100.00,WSW,247,12.0,17.0,21,-99.99,,,-99.99,,2013-04-30 00:51:00,
2013-04-29 18:01:00,75.0,34.0,-100.00,West,261,11.0,17.0,22,-99.99,,,-99.99,,2013-04-30 01:01:00,
2013-04-29 18:11:00,75.0,32.0,-100.00,WSW,251,11.0,16.0,21,-99.99,,,-99.99,,2013-04-30 01:11:00,
2013-04-29 18:21:00,75.0,32.0,-100.00,WSW,251,11.0,16.0,21,-99.99,,,-99.99,,2013-04-30 01:21:00,
2013-04-29 18:31:00,75.0,32.0,-100.00,WSW,251,11.0,16.0,21,-99.99,,,-99.99,,2013-04-30 01:31:00,
2013-04-29 18:52:00,73.0,30.0,-100.00,WSW,251,10.0,14.0,20,-99.99,,,-99.99,,2013-04-30 01:52:00,
2013-04-29 19:01:00,73.0,30.0,-100.00,WSW,251,10.0,14.0,20,-99.99,,,-99.99,,2013-04-30 02:01:00,
2013-04-29 19:11:00,73.0,30.0,-100.00,WSW,251,10.0,14.0,20,-99.99,,,-99.99,,2013-04-30 02:11:00,
2013-04-29 19:21:00,71.0,33.0,-100.00,WSW,249,8.0,13.0,25,-99.99,,,-99.99,,2013-04-30 02:21:00,
2013-04-29 19:31:00,70.0,35.0,-100.00,WSW,251,9.0,12.0,28,-99.99,,,-99.99,,2013-04-30 02:31:00,
2013-04-29 19:41:00,70.0,35.0,-100.00,WSW,251,9.0,12.0,28,-99.99,,,-99.99,,2013-04-30 02:41:00,
2013-04-29 19:50:00,66.0,38.0,-100.00,SW,227,6.0,7.0,35,-99.99,,,-99.99,,2013-04-30 02:50:00,
2013-04-29 19:51:00,70.0,35.0,-100.00,WSW,251,9.0,12.0,28,-99.99,,,-99.99,,2013-04-30 02:51:00,
2013-04-29 20:01:00,67.0,37.0,-100.00,SW,230,6.0,8.0,33,-99.99,,,-99.99,,2013-04-30 03:01:00,
2013-04-29 20:11:00,67.0,37.0,-100.00,SW,230,6.0,8.0,33,-99.99,,,-99.99,,2013-04-30 03:11:00,
2013-04-29 20:21:00,66.0,38.0,-100.00,SW,227,6.0,7.0,35,-99.99,,,-99.99,,2013-04-30 03:21:00,
2013-04-29 20:33:00,66.0,38.0,-100.00,SW,227,6.0,7.0,35,-99.99,,,-99.99,,2013-04-30 03:33:00,
2013-04-29 20:42:00,66.0,38.0,-100.00,SW,227,6.0,7.0,35,-99.99,,,-99.99,,2013-04-30 03:42:00,
2013-04-29 23:01:00,61.0,39.0,-100.00,West,281,7.0,10.0,44,-99.99,,,-99.99,,2013-04-30 06:01:00,
2013-04-29 23:11:00,61.0,39.0,-100.00,West,281,7.0,10.0,44,-99.99,,,-99.99,,2013-04-30 06:11:00,
2013-04-29 23:21:00,61.0,35.0,-100.00,WNW,283,6.0,8.0,38,-99.99,,,-99.99,,2013-04-30 06:21:00,
2013-04-29 23:31:00,61.0,35.0,-100.00,WNW,283,6.0,8.0,38,-99.99,,,-99.99,,2013-04-30 06:31:00,
2013-04-29 23:41:00,61.0,35.0,-100.00,WNW,283,6.0,8.0,38,-99.99,,,-99.99,,2013-04-30 06:41:00,